Park City, UT (84098)

2:08 PM MDT on April 19, 2015 (GMT -0600)
MesoWest | | Change Station
CLOSE
Current Station
Personal Weather Station
Location: Park City, UT
Elevation: 6400 ft
Nearby Weather Stations

Elev 6400 ft 40.73 °N, 111.54 °W | Updated 58 minutes ago

Partly Cloudy
Partly Cloudy
56 °F
Feels Like 56 °F
N
15
Wind Variable Wind from West
Gusts 24.0 mph

Today
High -- | Low -- °F
--% Chance of Precip.
Yesterday
High -- | Low -- °F
Precip. -- in
6:41 AM 8:09 PM
New Moon, 2% visible
Pressure 30.03 in
Visibility 10.0 miles
Clouds Mostly Cloudy 9000 ft
Dew Point 20 °F
Humidity 25%
Rainfall in
Snow Depth Not available.
UV 6 out of 12
Pollen 9.70 out of 12
Air Quality Not available.
Flu Activity Local Activity
METAR K36U 191955Z AUTO 33008KT 10SM BKN090 17/M04 A3003 RMK AO2

More Conditions Fewer Conditions

Pressure 30.03 in
Visibility 10.0 miles
Clouds Mostly Cloudy 9000 ft
Dew Point 20 °F
Humidity 25%
Rainfall in
Snow Depth Not available.
UV 6 out of 12
Pollen 9.70 out of 12
Air Quality Not available.
Flu Activity Local Activity
METAR K36U 191955Z AUTO 33008KT 10SM BKN090 17/M04 A3003 RMK AO2

More Conditions Fewer Conditions

10-Day Weather Forecast

Almanac

Astronomy

Apr. 19, 2015 Rise Set
Actual Time
Civil Twilight
Nautical Twilight
Astronomical Twilight
Moon
Length of Visible Light
Length of Day
Tomorrow will be .
, % of the Moon is Illuminated

Today's Extremes

State Highs State Lows

Community

WunderPhotos

Upload Photos

1,814,956 photos uploaded!

WunderBlogs® & News

Nearby

Air Quality

  Air Quality AQ Index Pollutant
Not available.

Snow Depth

Station Depth Elevation

Earthquake Activity

City Distance Mag. Time & Date
Minimum magnitude displayed is 2.5.

Coastal Water Temperatures

Place Temperature

Stations

Nearby Weather Stations

Station Location Temp. Windchill Dew Point Humidity Wind Precip. Elev Updated Type